EUTELSAT KONNECT

Last updated on Thu Nov 21 2024 00:02:44 GMT+0000 (Coordinated Universal Time)

1 45027U 20005B 24324.79642396 .00000051 00000+0 00000+0 0 9990 2 45027 0.0626 96.9035 0001429 201.2081 55.1187 1.00269950 18565
UTC large
Height (km)
Speed (km/s)
/
Latitude / Longitude
Inclination (degrees)
Orbital Period (minutes)
Azimuth
Elevation
Range (km)
Doppler Factor

Next 0 passes for location: London (51.5072 / 0.1276)

Sorry there are no passes over London.